This is the latest recevied weather packets stored in our database for station/object EA3CH. If no packets are shown the sender has not sent any weather packets the latest 10 day(s).
| Time | Temp. | Humidity | Pressure | Rain* | Wind** | Luminosity | Snow |
|---|---|---|---|---|---|---|---|
| 1788120003 | 21.11° C | 64% | 1018.7 hPa | 0 mm | - | 0 W/m² | - |
| 1788119104 | 21.67° C | 64% | 1018.7 hPa | 0 mm | - | 0 W/m² | - |
| 1788118204 | 21.67° C | 63% | 1018.6 hPa | 0 mm | - | 0 W/m² | - |
| 1788117303 | 22.22° C | 62% | 1018.3 hPa | 0 mm | - | 0 W/m² | - |
| 1788116406 | 23.89° C | 50% | 1018 hPa | 0 mm | - | 0 W/m² | - |
| 1788116404 | 22.78° C | 60% | 1018.2 hPa | 0 mm | - | 0 W/m² | - |
| 1788115504 | 23.89° C | 50% | 1017.9 hPa | 0 mm | - | 0 W/m² | - |
| 1788115504 | 23.89° C | 59% | 1018 hPa | 0 mm | - | 0 W/m² | - |
| 1788114606 | 24.44° C | 48% | 1017.7 hPa | 0 mm | - | 0 W/m² | - |
| 1788114603 | 24.44° C | 57% | 1018 hPa | 0 mm | - | 0 W/m² | - |
| 1788113705 | 25° C | 46% | 1017.7 hPa | 0 mm | - | 0 W/m² | - |
| 1788113704 | 25° C | 54% | 1017.9 hPa | 0 mm | - | 0 W/m² | - |
| 1788112803 | 25.56° C | 53% | 1017.8 hPa | 0 mm | - | 0 W/m² | - |
| 1788111904 | 26.11° C | 52% | 1017.7 hPa | 0 mm | - | 0 W/m² | - |
| 1788111005 | 27.22° C | 41% | 1017.5 hPa | 0 mm | - | 0 W/m² | - |
| 1788111004 | 27.22° C | 50% | 1017.7 hPa | 0 mm | - | 0 W/m² | - |
| 1788110103 | 27.78° C | 49% | 1017.7 hPa | 0 mm | - | 0 W/m² | - |
| 1788109205 | 28.33° C | 38% | 1017.4 hPa | 0 mm | - | 0 W/m² | - |
| 1788109203 | 28.33° C | 48% | 1017.6 hPa | 0 mm | - | 0 W/m² | - |
| 1788108304 | 28.33° C | 50% | 1017.6 hPa | 0 mm | - | 0 W/m² | - |
| 1788107403 | 28.33° C | 48% | 1017.6 hPa | 0 mm | - | 0 W/m² | - |
| 1788106522 | 29.44° C | 38% | 1017.4 hPa | 0 mm | - | 0 W/m² | - |
| 1788106504 | 29.44° C | 47% | 1017.5 hPa | 0 mm | - | 0 W/m² | - |
| 1788105607 | 29.44° C | 38% | 1017.4 hPa | 0 mm | - | 0 W/m² | - |
| 1788105604 | 29.44° C | 47% | 1017.6 hPa | 0 mm | - | 0 W/m² | - |
* Rain latest hour (hover to see other rain measurements)
** Current wind speed in m/s (hover to see current wind gust speed)